カタログに戻る

ATLAS 5 CENTAUR R/B

運用中HEO
NORAD 40209·ROCKET BODY·🇺🇸 United States

打ち上げ Sep 17, 2014 から Cape Canaveral Space Force Station

Loading…

次のパス (今後24時間)

TLE

最新Source: Space-Track

元期: Sep 12, 2026, 23:48 UTC

1 40209U 14055B   26255.99166919 -.00000097  00000-0  00000+0 0  9996
2 40209  20.2890 133.8234 4770258 182.5218 173.7513  1.85507254384168

AllMySatでATLAS 5 CENTAUR R/Bをリアルタイム追跡

Download on the App Store